Location: Brodeslavy
(49.9527°N, 13.5567°E)
Time: 04:41:34
(UTC+00:00)

Cosmos 1814 Rocket - Pass Details

Date: 17 June 2025
Orbit: 740 x 783 km, 74.1° (Epoch: 12 July)

Event Time Altitude Azimuth Distance (km) Brightness Sun altitude
Rises 23:13:16 0° 337° (NNW) 3,281 8.5 -16.6°
Reaches altitude 10° 23:15:42 10° 341° (NNW) 2,351 7.6 -16.6°
Maximum altitude 23:21:01 62° 63° (ENE) 881 4.4 -16.6°
Enters shadow 23:25:06 17° 141° (SE) 1,895 5.6 -16.5°
